Regional Weather Roundup
Issued by NWS

Home | Current Version | Previous Version | Graphics & Text | Print | Product List | Glossary On
Versions: 1 2 3 4 5 6 7 8 9 10 11 12 13 14 15 16 17 18 19 20 21 22 23 24 25 26 27 28 29 30 31 32 33 34 35 36 37 38 39 40 41 42 43 44 45 46 47 48 49 50
000
ASUS43 KFSD 070002
RWRSD

WEATHER ROUNDUP FOR SOUTH DAKOTA
NATIONAL WEATHER SERVICE SIOUX FALLS SD
600 PM CST FRI MAR 06 2015

NOTE: "FAIR" INDICATES FEW OR NO CLOUDS BELOW 12,000 FEET WITH NO
SIGNIFICANT WEATHER AND/OR OBSTRUCTIONS TO VISIBILITY.


SDZ001>005-009-010-012>017-070100-
NORTHWEST AND NORTH CENTRAL SOUTH DAKOTA

CITY           SKY/WX    TMP DP  RH WIND       PRES   REMARKS
BUFFALO          N/A     52  20  28 NW16      29.97S
FAITH            N/A     55  17  22 NW23G29   30.01S
MOBRIDGE       CLEAR     46  23  40 SE7       29.96S
$$

SDZ012>016-024>037-041>051-057-063-072>074-070100-
SOUTHWEST AND SOUTH CENTRAL SOUTH DAKOTA

CITY           SKY/WX    TMP DP  RH WIND       PRES   REMARKS
RAPID CTY ARPT CLEAR     54  21  27 NW18      30.08R
PIERRE         CLEAR     48  25  40 SE8       30.00F
CUSTER         CLEAR     43  18  36 W16G29    30.12S
ELLSWORTH AFB  CLEAR     53  23  32 NW17      30.07S
PHILIP         CLEAR     56  17  21 W17       30.05R
PINE RIDGE     CLEAR     51  20  29 W17G26    30.11S
SPEARFISH      FAIR      48  23  37 NW20G25   30.11R
WINNER         FAIR      53  20  27 W8        30.06F
$$

SDZ004>011-016>023-039-040-070100-
NORTHEAST SOUTH DAKOTA

CITY           SKY/WX    TMP DP  RH WIND       PRES   REMARKS
ABERDEEN       CLOUDY    37  27  67 S7        30.04F
WATERTOWN      CLOUDY    33  24  69 SW6       30.05F WCI  28
$$

SDZ017-020-022-023-036>040-048>070-070100-
SOUTHEAST SOUTH DAKOTA

CITY           SKY/WX    TMP DP  RH WIND       PRES   REMARKS
SIOUX FALLS    PTCLDY    42  23  46 NW5       30.08F
HURON          MOCLDY    40  23  50 E5        30.06F
MITCHELL       CLEAR     44  21  40 E7        30.07F
YANKTON        PTCLDY    50  19  29 N3        30.09F
$$

ABBREVIATIONS USED IN REMARKS
   TC - TEMPERATURE IN CELSIUS
  WCI - WIND CHILL INDEX
   HX - HEAT INDEX
  VSB - VISIBILITY



USA.gov is the U.S. government's official web portal to all federal, state and local government web resources and services.